Location: Bermeries
(50.2863°N, 3.7551°E)
Time: 13:18:48
(UTC+00:00)

Meteor 1-4 Rocket - Pass Details

Date: 23 May 2024
Orbit: 358 x 379 km, 81.2° (Epoch: 16 June)

Event Time Altitude Azimuth Distance (km) Brightness Sun altitude
Exits shadow 02:25:37 11° 260° (W) 1,310 4.3 -10.4°
Maximum altitude 02:27:11 15° 294° (WNW) 1,117 4.3 -10.2°
Drops below altitude 10° 02:28:56 10° 330° (NNW) 1,356 5.1 -10.0°
Sets 02:31:33 0° 357° (N) 2,214 6.7 -9.8°
